OCN143Y FYWH-EDDM

Flight info

Callsign OCN143Y
Flight time N/A
Altitude 34000
Route VEDRY UN187 VNA/N0485F360 UR526 LIKAD DCT RASOP UG861 DLA UA604 MF/N0478F380 UA604 AS UR978 CSO/N0477F400 UA605 CIRTA DCT ETOIL DCT OMEDA DCT TORTU DCT ERTEV DCT TAGIP DCT GUNGO DCT IVKAL T102 NINUR T101 BETOS BETOS1A
Aircraft A333/H-SDE3GHIJ2J3J5M1RVWXY/LB2D1

Departure

Time 2026-04-15 08:39
Airport Hosea Kutako International Airport (FYWH)

Arrival

Time N/A
Airport Munich Airport (EDDM)
Time Latitude Longitude Altitude Speed Heading
2026-04-15 08:16 -22.48609 17.46231 5607 ft 0 kts 322°
2026-04-15 08:33 -22.48589 17.46217 5617 ft 4 kts 328°
2026-04-15 08:33 -22.48566 17.46203 5609 ft 4 kts 333°
2026-04-15 08:33 -22.48543 17.46168 5611 ft 7 kts 277°
2026-04-15 08:34 -22.48556 17.46121 5611 ft 9 kts 250°
2026-04-15 08:34 -22.48591 17.46043 5616 ft 16 kts 243°
2026-04-15 08:34 -22.48652 17.45913 5620 ft 22 kts 243°
2026-04-15 08:34 -22.48715 17.45777 5626 ft 18 kts 243°
2026-04-15 08:35 -22.48768 17.45663 5625 ft 15 kts 243°
2026-04-15 08:35 -22.48777 17.45562 5629 ft 13 kts 296°
2026-04-15 08:35 -22.48744 17.45483 5626 ft 10 kts 269°
2026-04-15 08:35 -22.48774 17.45402 5627 ft 14 kts 243°
2026-04-15 08:36 -22.48816 17.45312 5628 ft 13 kts 243°
2026-04-15 08:36 -22.48852 17.45233 5630 ft 10 kts 243°
2026-04-15 08:36 -22.48893 17.45146 5633 ft 17 kts 241°
2026-04-15 08:36 -22.48989 17.45096 5636 ft 16 kts 196°
2026-04-15 08:37 -22.49030 17.45019 5639 ft 11 kts 295°
2026-04-15 08:37 -22.48978 17.44987 5640 ft 7 kts 11°
2026-04-15 08:37 -22.48949 17.45020 5638 ft 6 kts 63°
2026-04-15 08:37 -22.48945 17.45029 5639 ft 6 kts 63°
2026-04-15 08:38 -22.48849 17.45234 5630 ft 58 kts 63°
2026-04-15 08:38 -22.48592 17.45790 5621 ft 106 kts 63°
2026-04-15 08:38 -22.48190 17.46657 5601 ft 151 kts 63°
2026-04-15 08:38 -22.47657 17.47806 5585 ft 189 kts 66°
2026-04-15 08:39 -22.47074 17.49098 6115 ft 194 kts 63°
2026-04-15 08:39 -22.46365 17.50394 6604 ft 205 kts 52°
2026-04-15 08:39 -22.45427 17.51473 7428 ft 193 kts 36°
2026-04-15 08:39 -22.44173 17.52027 7817 ft 207 kts
2026-04-15 08:40 -22.42744 17.51544 7996 ft 231 kts 326°
2026-04-15 08:40 -22.41552 17.50256 8168 ft 255 kts 307°
2026-04-15 08:40 -22.40461 17.48688 8425 ft 268 kts 314°
2026-04-15 08:40 -22.39052 17.47301 8651 ft 280 kts 323°